Temp_Advection
nan nan nan nan nan nan nan nan nan nan nan nan nan nan nan nan nan nan nan nan nan nan nan nan nan nan nan nan nan nan nan nan nan nan nan nan nan nan nan nan nan nan nan
nan 0 0 -0 -0 0 -0 -0 -0 -0 -0 -0 -0 -0 -0 -0 -0 -0 -0 -0 0 0 0 0 0 -0 -0 -0 -0 -0 0 0 0 0 0 -0 -0 -0 -0 -0 0 -0 nan
nan -0 0 -0 -0 0 -0 -0 -0 -0 -0 -0 -0 -0 -0 -0 -0 -0 -0 -0 -0 -0 -0 0 0 0 0 -0 -0 -0 -0 -0 0 0 0 0 -0 -0 -0 -0 -0 -0 nan
nan 0 0 0 0 0 0 -0 -0 -0 -0 -0 -0 -0 -0 -0 -0 -0 -0 -0 -0 -0 -0 -0 -0 0 0 -0 -0 -0 -0 -0 -0 -0 0 0 0 -0 -0 -0 -0 -0 nan
nan 0 0 0 0 0 0 -0 -0 -0 -0 -0 0 -0 0 0 0 0 0 0 0 0 0 -0 -0 -0 0 0 -0 -0 -0 -0 -0 -0 -0 0 0 -0 -0 -0 -0 -0 nan
nan 0 0 0 0 0 -0 -0 -0 -0 0 0 0 0 0 0 0 0 0 0 0 0 0 0 0 -0 0 0 0 -0 0 -0 -0 -0 0 0 0 -0 -0 -0 0 0 nan
nan 0 0 0 0 0 -0 -0 0 0 0 0 0 0 0 0 0 0 0 0 0 0 0 0 0 0 0 0 0 0 0 0 -0 -0 0 0 0 0 -0 -0 -0 -0 nan
nan -0 0 0 0 0 0 0 0 0 0 0 0 0 0 0 0 0 -0 0 0 -0 -0 0 0 0 0 0 0 0 0 0 -0 -0 0 0 -0 0 0 -0 -0 -0 nan
nan 0 0 0 -0 -0 -0 -0 0 0 0 0 0 0 -0 -0 0 0 -0 -0 0 -0 -0 -0 -0 -0 0 0 0 0 0 0 0 0 0 0 -0 -0 -0 -0 -0 -0 nan
nan -0 0 0 0 0 0 -0 0 0 0 0 0 0 0 -0 -0 -0 0 -0 0 0 0 0 -0 -0 -0 -0 0 -0 -0 -0 -0 -0 0 0 -0 -0 0 -0 -0 0 nan
nan -0 -0 0 0 -0 -0 -0 -0 -0 -0 -0 -0 0 0 0 -0 -0 -0 -0 -0 0 0 -0 -0 -0 -0 -0 -0 -0 -0 -0 -0 -0 -0 -0 0 -0 -0 -0 0 -0 nan
nan 0 0 0 -0 -0 -0 -0 -0 -0 -0 -0 -0 -0 -0 -0 -0 0 -0 -0 -0 -0 -0 -0 -0 -0 -1 -1 -1 -0 -0 -0 -0 -0 -0 -0 0 0 0 -0 -0 -0 nan
nan 0 0 -0 -0 -0 0 0 -0 -0 -0 0 -0 -0 -0 -0 -0 -0 -0 -0 -0 -0 -0 -0 -0 0 0 -0 -0 -0 -1 -1 -0 -0 -0 0 0 0 0 0 0 -0 nan
nan -0 0 -0 -0 -0 0 0 -0 -0 -0 -0 -0 -0 -0 -0 -0 -0 -0 -0 -0 -0 -0 -0 0 0 0 -0 -0 -0 -0 -0 -0 -0 -0 -0 -0 -0 -0 -0 -0 0 nan
nan -0 -0 -0 -0 0 0 -0 -0 -0 -0 -0 -0 -0 -0 -0 -0 -0 -0 -0 -0 -0 -0 -0 -0 0 0 -0 -0 -0 -0 -0 -0 -0 -0 -0 -0 -0 -0 -0 -0 -0 nan
nan -0 -0 -0 -0 0 0 -0 -0 -0 -0 0 -0 -0 -0 -0 -0 -0 -0 -0 -0 -0 -0 -0 -0 0 0 -0 -0 -0 -0 -0 -0 -0 -0 -0 0 -0 -0 -0 -0 -0 nan
nan -0 -0 0 0 0 0 -0 -0 -0 -0 -0 -0 -0 -0 -0 -0 -0 -0 -0 -0 -0 -0 -0 0 0 0 0 -0 -0 -0 -0 -0 -0 -0 0 0 0 -0 -0 -0 -0 nan
nan -0 0 0 0 0 0 0 0 -0 -0 -0 -0 -0 -0 -0 -0 -0 -0 -0 -0 -0 -0 -0 -0 0 0 0 0 -0 0 -0 -0 -0 0 0 0 0 -0 -0 -0 -0 nan
nan -0 -0 0 0 0 0 0 0 -0 -0 0 -0 -0 -0 -0 -0 -0 -0 -0 -0 -0 -0 -1 -0 -0 0 0 0 0 0 -0 0 0 -0 0 -0 -0 0 -0 -1 -0 nan
nan -0 -0 0 0 0 0 0 0 0 0 0 0 -0 -0 -0 -0 -0 -0 -0 -0 -0 -0 -0 -1 -0 0 -0 -0 0 0 0 -0 0 0 -0 -0 -0 -0 -0 -0 -1 nan
nan 0 0 0 0 0 0 0 0 -0 -0 0 0 0 -0 -0 -0 0 -0 -0 -0 -0 -0 -0 -1 -0 0 -0 -1 -0 -0 0 -0 0 -0 0 0 0 -0 0 -0 -0 nan
nan 0 1 0 -0 0 0 0 0 0 -0 -0 -0 0 -0 -0 -0 0 0 0 0 0 0 -0 -0 -0 -0 -0 -1 -1 -0 0 0 0 0 0 0 0 0 0 -0 -0 nan
nan 0 0 0 0 -0 0 0 0 -0 0 0 -0 -0 -0 -0 0 0 0 0 0 0 0 0 -0 -0 -0 0 0 -0 -0 -0 -1 0 0 0 0 0 0 0 0 -0 nan
nan 0 0 0 0 -0 0 0 -0 0 0 0 -0 -0 -0 -0 -0 0 0 0 0 0 0 0 0 -0 -0 0 0 0 0 -0 -0 -1 0 0 0 0 0 0 0 0 nan
nan 0 0 0 0 0 0 0 0 0 0 0 0 -0 -0 0 -0 -0 0 0 0 0 0 0 0 0 0 0 1 0 -0 0 -0 -0 -1 -1 0 0 0 0 0 0 nan
nan nan nan nan nan nan nan nan nan nan nan nan nan nan nan nan nan nan nan nan nan nan nan nan nan nan nan nan nan nan nan nan nan nan nan nan nan nan nan nan nan nan nan
Wind_Speed
8 13 11 9 8 8 7 8 8 9 9 9 9 8 8 7 7 6 7 8 8 7 6 7 7 8 9 9 7 6 5 5 6 5 5 6 7 7 7 4 2 6 5
11 12 11 9 8 8 7 7 7 7 8 8 8 8 8 8 8 8 8 8 9 8 7 7 7 7 8 8 8 7 6 7 7 6 6 6 6 9 9 6 4 4 4
9 14 12 9 8 7 6 6 6 6 6 6 6 6 6 7 7 8 9 9 9 9 8 8 8 8 9 9 9 8 8 8 8 7 6 5 9 13 12 9 7 6 5
5 11 10 9 7 6 5 4 4 4 5 5 6 7 7 7 8 9 9 9 9 9 9 9 9 10 10 11 11 11 10 10 9 9 7 5 3 13 14 11 9 8 6
10 8 9 8 6 5 4 3 3 4 5 5 6 7 7 7 8 9 10 11 11 11 11 10 11 11 12 13 13 13 13 13 12 11 10 6 7 13 14 12 11 10 7
12 10 7 8 6 6 4 3 3 3 5 6 7 8 8 9 10 11 12 13 13 14 14 14 14 14 14 14 15 15 15 14 15 13 11 5 13 16 17 12 12 12 11
12 10 10 8 5 3 2 2 3 5 6 7 7 8 9 10 11 12 13 13 14 14 15 15 15 15 15 16 17 17 16 16 17 16 14 9 13 17 19 15 16 14 13
10 9 10 8 4 2 1 3 4 6 7 8 9 10 11 12 12 13 13 14 15 16 17 17 17 18 18 18 19 19 19 19 19 19 17 15 13 17 21 21 19 16 16
9 7 8 5 3 1 2 4 6 7 8 9 10 11 12 13 13 14 15 16 17 18 19 20 20 21 21 21 21 21 21 22 23 22 20 17 18 17 21 23 20 19 18
14 10 6 5 3 1 2 5 6 8 9 10 10 11 11 13 15 17 19 19 19 19 19 19 20 20 21 21 21 22 23 24 24 23 21 18 17 21 23 24 21 20 19
13 9 6 5 4 3 6 6 7 7 9 10 11 12 13 14 15 16 16 17 17 17 18 18 18 17 17 16 14 15 17 16 13 12 14 19 20 22 22 23 21 19 19
12 9 7 5 4 4 5 7 9 9 9 11 11 13 14 14 16 16 17 18 19 18 18 19 19 18 17 18 17 15 15 14 13 15 17 14 18 22 24 25 24 22 20
12 11 8 6 5 5 5 6 9 9 9 11 12 13 14 13 13 14 15 16 17 18 17 17 16 15 16 16 15 16 17 16 15 15 17 20 20 20 24 26 25 22 21
13 11 9 8 6 5 6 7 9 10 11 12 13 14 12 13 13 14 16 17 17 16 17 17 17 15 15 14 14 14 14 15 14 12 12 15 18 21 22 25 24 22 20
13 11 10 8 7 6 7 8 8 10 11 13 13 11 11 13 15 17 18 18 17 18 18 18 16 16 15 13 11 12 14 13 13 13 13 14 16 19 23 23 22 21 21
13 11 10 9 9 8 8 8 9 10 13 11 11 10 13 15 16 17 17 17 18 19 18 17 17 17 15 13 10 11 12 12 10 10 11 11 13 15 17 14 15 17 18
11 11 11 10 10 10 8 9 9 9 11 11 10 11 12 13 16 19 20 19 19 19 18 16 18 17 14 11 11 11 12 11 12 9 8 9 11 12 11 13 11 13 14
11 13 11 11 11 10 10 9 9 10 11 11 9 10 10 14 17 20 21 19 19 18 17 17 19 19 15 11 12 13 11 8 12 9 8 6 5 7 8 11 10 10 11
15 15 13 13 13 12 11 11 10 10 11 11 9 8 10 14 17 21 22 20 19 19 18 19 17 19 17 15 15 14 5 12 11 3 5 6 6 5 6 9 11 12 10
14 14 15 14 14 13 13 11 11 11 11 10 9 9 12 16 19 21 22 20 19 18 18 19 20 19 17 17 15 11 5 7 4 2 2 4 9 11 10 8 12 14 12
15 15 15 17 13 15 13 11 12 12 12 11 11 10 13 16 19 22 22 20 19 18 18 18 21 21 20 16 14 10 3 3 1 8 2 3 8 12 14 13 12 12 11
14 16 16 16 16 14 13 13 12 12 14 14 13 13 15 17 20 22 20 19 18 18 16 17 19 21 20 15 13 9 7 4 1 4 5 6 4 10 11 16 15 11 10
16 17 16 16 17 15 15 14 12 13 14 13 13 14 16 20 22 21 18 17 16 17 16 16 18 19 20 15 8 6 5 5 11 4 1 2 5 9 15 16 15 15 9
11 14 16 16 17 16 13 12 13 14 14 12 14 16 17 19 19 18 18 17 16 16 16 16 16 18 18 17 9 2 6 9 5 8 7 3 2 8 13 16 15 16 10
7 8 10 12 12 11 10 11 13 13 12 13 14 16 18 18 18 18 17 17 17 16 16 16 16 16 17 17 15 9 8 9 10 10 18 9 10 11 11 17 21 15 13
2 3 6 7 7 8 9 11 10 11 12 14 15 16 15 14 15 17 18 18 17 17 17 16 16 16 16 16 15 14 10 10 9 10 16 20 20 16 15 15 11 10 12
Wind_Direction
171 165 153 139 126 113 101 87 77 70 68 65 63 58 49 41 36 25 10 2 1 5 7 5 359 2 6 6 359 347 340 337 333 331 333 340 346 355 357 1 270 329 315
174 165 148 138 128 114 102 88 76 68 64 58 51 47 41 34 25 14 10 6 0 353 343 338 336 339 348 353 352 346 331 322 324 322 325 336 338 348 347 344 329 317 318
163 154 145 139 129 118 105 89 75 63 56 49 40 29 23 15 10 1 356 356 354 349 341 333 327 325 327 329 330 331 328 323 319 316 314 353 340 323 320 328 320 318 320
161 158 140 138 130 121 106 85 73 56 41 30 19 11 7 1 354 347 344 338 336 333 329 324 321 318 316 317 318 317 316 316 316 313 305 269 340 288 297 308 312 311 313
151 147 144 139 135 128 111 86 61 36 16 14 0 352 343 338 329 324 322 321 321 318 317 315 313 312 310 307 307 305 305 307 306 306 306 282 272 268 281 291 298 298 300
162 170 173 150 140 131 105 76 53 22 355 347 340 334 331 329 328 325 323 319 317 314 311 307 301 298 299 298 300 298 299 298 297 298 297 305 285 290 285 286 288 287 288
171 172 174 155 146 138 91 41 2 348 342 343 343 338 335 332 327 324 322 319 317 313 309 306 302 296 292 290 289 289 292 289 288 292 292 274 267 286 286 291 287 284 281
166 161 167 150 136 124 64 354 348 347 344 341 337 336 334 331 330 325 320 318 316 312 309 305 301 297 294 291 288 287 284 284 286 288 289 284 273 268 278 288 285 282 282
150 170 169 157 143 144 346 346 343 341 339 336 335 334 333 330 327 324 319 323 316 312 308 304 301 298 296 292 289 286 283 282 282 283 283 277 274 260 268 275 280 280 281
163 146 150 148 168 184 331 337 337 336 334 331 332 334 336 330 329 332 328 327 323 320 316 313 309 306 303 298 293 289 286 283 282 282 283 280 278 276 270 271 277 280 280
181 178 175 176 179 241 322 327 331 333 330 328 334 338 335 335 326 329 328 331 328 328 324 319 318 314 313 309 301 291 293 299 303 297 297 294 277 273 273 274 272 281 282
184 190 197 207 223 269 303 323 325 328 331 330 333 333 337 334 333 336 338 336 338 334 333 331 328 330 325 319 315 307 296 292 275 261 258 270 278 275 274 280 277 284 282
187 196 210 221 243 270 294 309 314 322 330 327 329 335 333 334 337 337 336 335 334 334 331 326 325 322 320 320 326 322 311 302 289 274 256 250 267 272 273 275 276 272 275
194 201 215 229 247 261 287 303 314 324 322 327 336 331 337 341 341 341 339 337 338 333 332 330 327 323 316 317 310 313 319 312 313 300 282 262 271 278 279 280 279 268 270
199 208 220 236 251 263 286 297 311 316 329 334 328 337 343 345 346 348 344 342 340 340 337 334 330 327 325 322 324 317 307 312 311 310 283 266 273 284 285 284 273 268 271
204 214 228 243 253 268 284 300 312 325 325 321 332 343 347 351 351 351 348 345 345 343 341 340 339 332 326 329 319 312 310 310 299 288 304 293 275 290 298 302 279 276 278
214 223 236 248 255 264 283 297 312 311 317 331 335 342 347 353 358 356 352 348 345 344 342 341 343 338 326 328 319 303 288 291 304 294 279 275 275 289 303 306 300 285 287
221 236 237 249 255 266 279 294 292 314 323 320 327 334 347 357 359 357 352 346 343 342 340 339 342 341 329 327 315 311 312 320 293 287 279 285 259 271 288 307 314 302 296
222 241 248 255 256 262 272 277 291 309 309 307 311 327 346 348 350 352 350 344 342 341 340 337 342 342 339 322 322 313 317 306 302 268 277 282 300 289 282 302 307 303 308
235 240 251 251 256 260 261 270 281 292 298 302 304 309 327 337 344 344 343 342 340 338 338 334 338 342 340 325 328 314 296 309 12 272 289 323 337 338 334 322 320 306 312
227 241 243 259 257 256 259 265 276 291 308 300 288 297 315 328 333 336 336 338 337 334 334 335 333 340 344 341 345 353 46 288 68 353 16 329 341 343 334 323 308 320 329
239 241 241 243 256 257 254 257 268 285 296 295 296 298 307 320 326 328 330 333 332 331 330 332 333 339 343 346 351 7 352 224 216 291 275 309 332 324 316 325 325 326 315
241 240 240 231 244 253 247 258 265 282 291 290 289 295 313 321 323 322 323 325 327 327 327 327 330 334 337 348 356 355 335 321 328 182 252 294 336 335 323 322 322 323 314
237 236 234 230 237 247 251 258 271 285 290 288 294 304 308 312 316 321 321 320 321 323 323 321 324 323 328 334 347 267 284 295 326 313 202 200 196 306 320 322 325 325 321
236 227 223 232 239 242 250 259 276 285 288 296 303 307 312 318 321 323 326 322 321 318 319 316 315 316 319 322 328 308 296 286 281 278 298 295 266 295 287 299 294 293 322
177 192 205 218 225 241 258 273 280 287 293 299 305 309 315 320 322 318 324 326 326 323 317 314 310 309 309 311 314 317 289 276 278 281 290 295 306 324 304 311 316 302 309
Height
1540 1542 1543 1545 1546 1546 1547 1547 1548 1548 1548 1548 1548 1549 1549 1549 1549 1550 1549 1549 1549 1548 1548 1547 1547 1546 1545 1545 1544 1543 1542 1542 1541 1541 1541 1540 1540 1539 1539 1538 1538 1537 1537
1539 1542 1544 1546 1547 1547 1548 1548 1549 1549 1549 1550 1550 1550 1550 1550 1550 1550 1550 1549 1549 1548 1548 1547 1547 1546 1545 1545 1544 1543 1542 1542 1541 1541 1540 1540 1539 1539 1538 1538 1537 1536 1536
1539 1542 1544 1546 1547 1548 1548 1549 1550 1550 1550 1551 1551 1551 1550 1550 1550 1550 1550 1550 1549 1549 1548 1547 1547 1546 1545 1544 1544 1543 1542 1541 1541 1540 1540 1539 1538 1538 1538 1537 1536 1536 1535
1541 1543 1545 1547 1548 1549 1549 1550 1551 1552 1552 1551 1551 1551 1551 1550 1550 1550 1549 1549 1548 1548 1547 1547 1546 1545 1545 1544 1543 1542 1541 1540 1540 1539 1539 1539 1539 1538 1538 1537 1536 1535 1534
1542 1545 1546 1548 1549 1550 1550 1550 1551 1552 1552 1552 1552 1552 1551 1550 1550 1549 1549 1548 1548 1547 1546 1546 1545 1544 1543 1543 1541 1540 1539 1538 1538 1538 1538 1538 1538 1537 1536 1536 1535 1534 1533
1544 1546 1547 1548 1549 1550 1551 1551 1552 1552 1552 1552 1552 1552 1551 1550 1550 1549 1548 1547 1546 1545 1545 1544 1543 1543 1542 1541 1540 1539 1538 1537 1536 1535 1536 1535 1537 1536 1534 1534 1534 1533 1532
1545 1546 1548 1549 1550 1551 1551 1552 1552 1552 1552 1551 1551 1551 1551 1550 1549 1548 1547 1546 1545 1544 1542 1541 1540 1539 1539 1538 1537 1536 1536 1535 1534 1533 1533 1533 1535 1534 1533 1532 1532 1531 1530
1545 1547 1549 1550 1551 1552 1552 1552 1552 1552 1552 1551 1551 1550 1550 1549 1548 1547 1545 1544 1543 1542 1540 1539 1537 1536 1535 1534 1533 1533 1532 1531 1531 1531 1531 1531 1532 1531 1531 1530 1529 1529 1528
1546 1548 1549 1551 1551 1553 1553 1552 1552 1551 1551 1551 1550 1549 1548 1547 1546 1545 1543 1542 1541 1539 1538 1536 1535 1533 1532 1530 1529 1528 1528 1527 1527 1527 1527 1527 1528 1528 1527 1526 1526 1525 1524
1547 1548 1549 1551 1551 1552 1552 1552 1551 1551 1551 1550 1549 1548 1547 1546 1544 1543 1541 1540 1538 1536 1535 1533 1531 1530 1528 1527 1525 1524 1523 1523 1522 1523 1523 1524 1525 1525 1523 1523 1521 1521 1520
1546 1548 1550 1551 1552 1552 1551 1552 1551 1550 1550 1549 1548 1547 1546 1545 1543 1542 1540 1538 1536 1534 1532 1530 1528 1526 1524 1522 1521 1519 1518 1518 1518 1518 1519 1520 1521 1520 1519 1518 1518 1517 1517
1546 1548 1550 1550 1551 1552 1551 1551 1550 1549 1549 1548 1547 1546 1544 1543 1541 1540 1537 1536 1533 1531 1529 1527 1525 1523 1521 1519 1518 1516 1515 1514 1513 1513 1514 1515 1516 1516 1516 1514 1514 1513 1513
1544 1547 1549 1550 1551 1551 1551 1550 1549 1549 1548 1547 1546 1544 1543 1541 1540 1538 1536 1534 1532 1529 1527 1525 1523 1522 1520 1517 1515 1514 1512 1511 1510 1509 1510 1510 1511 1510 1510 1510 1509 1509 1509
1543 1545 1548 1549 1549 1550 1549 1549 1548 1547 1547 1546 1544 1543 1542 1540 1538 1537 1535 1533 1530 1527 1525 1522 1520 1519 1517 1515 1513 1512 1511 1509 1508 1507 1507 1507 1506 1506 1505 1505 1505 1505 1505
1541 1543 1546 1547 1548 1548 1548 1548 1547 1546 1546 1544 1543 1542 1540 1539 1537 1535 1533 1531 1529 1526 1523 1520 1518 1516 1514 1512 1511 1510 1509 1508 1506 1505 1504 1503 1502 1502 1501 1500 1500 1501 1500
1540 1541 1544 1545 1546 1546 1547 1546 1546 1545 1544 1544 1541 1541 1539 1538 1536 1534 1532 1530 1527 1524 1521 1518 1516 1513 1511 1509 1509 1508 1507 1506 1504 1503 1503 1501 1500 1499 1498 1497 1496 1497 1497
1538 1540 1542 1543 1544 1545 1545 1546 1545 1544 1543 1542 1541 1540 1539 1537 1535 1533 1531 1528 1526 1523 1520 1517 1515 1512 1509 1507 1506 1505 1504 1502 1502 1501 1500 1499 1498 1497 1496 1495 1494 1494 1493
1536 1537 1540 1541 1542 1543 1544 1544 1544 1543 1541 1540 1540 1539 1538 1536 1534 1532 1530 1527 1525 1522 1519 1516 1513 1510 1507 1505 1503 1501 1500 1500 1499 1499 1498 1496 1497 1496 1494 1493 1492 1491 1490
1535 1535 1537 1538 1540 1541 1541 1542 1542 1541 1540 1539 1539 1538 1537 1536 1534 1531 1529 1526 1524 1521 1517 1514 1512 1509 1505 1502 1500 1499 1497 1498 1497 1497 1496 1494 1495 1495 1494 1493 1491 1489 1488
1533 1534 1534 1536 1537 1538 1539 1540 1540 1539 1539 1538 1537 1537 1536 1534 1532 1530 1528 1525 1522 1520 1517 1513 1510 1508 1504 1501 1498 1496 1495 1496 1496 1496 1495 1495 1494 1493 1493 1491 1489 1487 1486
1532 1532 1533 1533 1535 1535 1536 1537 1537 1537 1537 1536 1535 1535 1533 1532 1530 1528 1526 1523 1521 1518 1515 1512 1509 1506 1503 1499 1496 1495 1494 1495 1495 1495 1495 1495 1494 1493 1491 1490 1488 1486 1484
1529 1530 1531 1531 1532 1533 1534 1535 1536 1536 1535 1534 1533 1533 1532 1530 1529 1526 1524 1521 1519 1517 1515 1512 1508 1506 1503 1500 1497 1495 1496 1497 1494 1495 1494 1494 1494 1493 1491 1489 1486 1484 1482
1525 1526 1528 1530 1530 1531 1532 1533 1534 1534 1533 1533 1532 1531 1529 1527 1526 1524 1522 1519 1517 1515 1512 1510 1508 1505 1503 1500 1499 1499 1498 1497 1493 1493 1492 1493 1492 1491 1489 1487 1485 1482 1480
1521 1523 1524 1526 1527 1528 1530 1532 1532 1532 1531 1531 1530 1529 1528 1526 1524 1521 1519 1517 1515 1513 1511 1509 1507 1505 1502 1500 1498 1499 1499 1499 1496 1492 1491 1491 1489 1489 1487 1485 1483 1481 1478
1518 1520 1521 1523 1525 1527 1528 1529 1529 1529 1529 1528 1527 1526 1524 1522 1520 1518 1516 1515 1513 1511 1509 1507 1505 1504 1501 1499 1497 1496 1496 1496 1495 1494 1490 1487 1486 1486 1485 1483 1480 1480 1478
1517 1518 1520 1522 1524 1525 1526 1527 1527 1527 1526 1525 1524 1523 1521 1519 1518 1517 1513 1511 1510 1509 1507 1505 1503 1501 1500 1498 1496 1494 1494 1494 1493 1492 1490 1487 1485 1482 1481 1479 1477 1477 1476